When you browse on this site, cookies collect data to enhance your experience and personalize the content and advertising you see.
Visit our Privacy Policy to learn more. By continuing to use the site, you agree to this use of cookies and data.
  • In Netherlands
  • List of Countries
  • For 7 days
  • Water Temperature
  • Satellite Maps
  • Weather Map
  • Weather Widgets
  • user-avatar
    Login

    Hourly Weather Ouahigouya

    Today, 16 July, Tuesday

    Time Temperature Precipitation Wind Pressure Humidity
    00:00 +29°C° 0.1 mm 5 mps 728 mmHg 66%
    01:00 +29°C° 0 mm 5 mps 728 mmHg 66%
    02:00 +29°C° 0 mm 5 mps 728 mmHg 66%
    03:00 +28°C° 0 mm 5 mps 727 mmHg 66%
    04:00 +28°C° 0 mm 4 mps 727 mmHg 67%
    05:00 +28°C° 0 mm 4 mps 728 mmHg 67%
    06:00 +27°C° 0 mm 4 mps 728 mmHg 67%
    07:00 +29°C° 0 mm 3 mps 728 mmHg 61%
    08:00 +30°C° 0 mm 3 mps 729 mmHg 56%
    09:00 +31°C° 0 mm 3 mps 730 mmHg 51%
    10:00 +33°C° 0 mm 4 mps 730 mmHg 46%
    11:00 +35°C° 0 mm 5 mps 730 mmHg 41%
    12:00 +38°C° 0 mm 6 mps 730 mmHg 37%
    13:00 +37°C° 0 mm 5 mps 730 mmHg 35%
    14:00 +37°C° 0 mm 5 mps 729 mmHg 34%
    15:00 +39°C° 0 mm 5 mps 728 mmHg 33%
    16:00 +39°C° 0 mm 5 mps 728 mmHg 34%
    17:00 +37°C° 0 mm 5 mps 728 mmHg 34%
    18:00 +37°C° 0 mm 4 mps 728 mmHg 35%
    19:00 +37°C° 0 mm 4 mps 729 mmHg 37%
    20:00 +36°C° 0 mm 4 mps 729 mmHg 39%
    21:00 +35°C° 0 mm 4 mps 730 mmHg 42%
    22:00 +34°C° 0 mm 4 mps 730 mmHg 46%
    23:00 +34°C° 0 mm 4 mps 730 mmHg 49%

    Tomorrow, 17 July, Wednesday

    Time Temperature Precipitation Wind Pressure Humidity
    00:00 +33°C° 0 mm 5 mps 730 mmHg 53%
    01:00 +32°C° 0 mm 5 mps 729 mmHg 57%
    02:00 +30°C° 0 mm 5 mps 729 mmHg 60%
    03:00 +30°C° 0 mm 5 mps 729 mmHg 64%
    04:00 +29°C° 0 mm 5 mps 730 mmHg 65%
    05:00 +29°C° 0 mm 5 mps 730 mmHg 67%
    06:00 +28°C° 0 mm 5 mps 730 mmHg 69%
    07:00 +29°C° 0 mm 5 mps 731 mmHg 65%
    08:00 +32°C° 0 mm 6 mps 731 mmHg 61%
    09:00 +33°C° 0 mm 6 mps 731 mmHg 57%
    10:00 +34°C° 0 mm 5 mps 731 mmHg 50%
    11:00 +36°C° 0 mm 4 mps 731 mmHg 43%
    12:00 +37°C° 0 mm 4 mps 731 mmHg 36%
    13:00 +38°C° 0 mm 3 mps 730 mmHg 34%
    14:00 +38°C° 0 mm 2 mps 729 mmHg 32%
    15:00 +39°C° 0 mm 1 mps 728 mmHg 30%
    16:00 +38°C° 0 mm 2 mps 728 mmHg 33%
    17:00 +38°C° 0 mm 2 mps 728 mmHg 33%
    18:00 +38°C° 0 mm 2 mps 728 mmHg 32%
    19:00 +38°C° 0 mm 2 mps 728 mmHg 33%
    20:00 +37°C° 0 mm 2 mps 728 mmHg 35%
    21:00 +37°C° 0 mm 2 mps 728 mmHg 36%
    22:00 +36°C° 0.2 mm 3 mps 729 mmHg 38%
    23:00 +35°C° 0.2 mm 4 mps 729 mmHg 41%

    Day after tomorrow, 18 July, Thursday

    Time Temperature Precipitation Wind Pressure Humidity
    00:00 +34°C° 0.2 mm 5 mps 729 mmHg 43%
    01:00 +33°C° 0.6 mm 5 mps 728 mmHg 46%
    02:00 +33°C° 0.6 mm 4 mps 728 mmHg 49%
    03:00 +32°C° 0.6 mm 4 mps 728 mmHg 52%
    04:00 +32°C° 0.1 mm 4 mps 728 mmHg 56%
    05:00 +30°C° 0.1 mm 5 mps 728 mmHg 59%
    06:00 +30°C° 0.1 mm 5 mps 729 mmHg 63%
    07:00 +30°C° 0.1 mm 6 mps 729 mmHg 61%
    08:00 +32°C° 0.1 mm 6 mps 729 mmHg 59%
    09:00 +33°C° 0.1 mm 6 mps 730 mmHg 56%
    10:00 +35°C° 0 mm 6 mps 729 mmHg 50%
    11:00 +38°C° 0 mm 6 mps 729 mmHg 44%
    12:00 +39°C° 0 mm 6 mps 729 mmHg 38%
    13:00 +40°C° 0 mm 5 mps 728 mmHg 35%
    14:00 +41°C° 0 mm 5 mps 727 mmHg 32%
    15:00 +42°C° 0 mm 4 mps 727 mmHg 29%
    16:00 +41°C° 0.1 mm 5 mps 727 mmHg 32%
    17:00 +40°C° 0.1 mm 5 mps 726 mmHg 36%
    18:00 +37°C° 0.1 mm 5 mps 726 mmHg 39%
    19:00 +36°C° 0.1 mm 6 mps 727 mmHg 43%
    20:00 +35°C° 0.1 mm 6 mps 728 mmHg 48%
    21:00 +33°C° 0.1 mm 7 mps 729 mmHg 52%
    22:00 +32°C° 1.2 mm 7 mps 729 mmHg 58%
    23:00 +30°C° 1.2 mm 7 mps 729 mmHg 64%

    19 July, Friday

    Time Temperature Precipitation Wind Pressure Humidity
    00:00 +28°C° 1.2 mm 7 mps 729 mmHg 70%
    01:00 +28°C° 0.3 mm 5 mps 729 mmHg 69%
    02:00 +28°C° 0.3 mm 4 mps 728 mmHg 67%
    03:00 +28°C° 0.3 mm 3 mps 728 mmHg 66%
    04:00 +28°C° 0.1 mm 3 mps 728 mmHg 66%
    05:00 +28°C° 0.1 mm 4 mps 728 mmHg 67%
    06:00 +28°C° 0.1 mm 5 mps 728 mmHg 67%
    07:00 +29°C° 0 mm 5 mps 729 mmHg 66%
    08:00 +29°C° 0 mm 5 mps 729 mmHg 65%
    09:00 +30°C° 0 mm 6 mps 730 mmHg 63%
    10:00 +32°C° 0 mm 6 mps 730 mmHg 58%
    11:00 +34°C° 0 mm 5 mps 729 mmHg 53%
    12:00 +35°C° 0 mm 5 mps 729 mmHg 48%
    13:00 +36°C° 0 mm 5 mps 728 mmHg 44%
    14:00 +37°C° 0 mm 5 mps 728 mmHg 40%
    15:00 +38°C° 0 mm 4 mps 727 mmHg 36%
    16:00 +38°C° 0 mm 4 mps 727 mmHg 36%
    17:00 +38°C° 0 mm 3 mps 727 mmHg 36%
    18:00 +38°C° 0 mm 3 mps 727 mmHg 36%
    19:00 +37°C° 0.1 mm 3 mps 728 mmHg 38%
    20:00 +36°C° 0.1 mm 3 mps 728 mmHg 40%
    21:00 +36°C° 0.1 mm 3 mps 729 mmHg 42%
    22:00 +35°C° 0.5 mm 3 mps 729 mmHg 46%
    23:00 +34°C° 0.5 mm 4 mps 729 mmHg 49%

    20 July, Saturday

    Time Temperature Precipitation Wind Pressure Humidity
    00:00 +33°C° 0.5 mm 5 mps 729 mmHg 53%
    01:00 +30°C° 2.4 mm 4 mps 729 mmHg 61%
    02:00 +29°C° 2.4 mm 4 mps 729 mmHg 69%
    03:00 +28°C° 2.4 mm 3 mps 728 mmHg 77%
    04:00 +27°C° 1.5 mm 3 mps 729 mmHg 75%
    05:00 +27°C° 1.5 mm 4 mps 729 mmHg 74%
    06:00 +27°C° 1.5 mm 4 mps 729 mmHg 72%
    07:00 +27°C° 0.3 mm 5 mps 730 mmHg 71%
    08:00 +27°C° 0.3 mm 6 mps 731 mmHg 71%
    09:00 +28°C° 0.3 mm 6 mps 731 mmHg 70%
    10:00 +28°C° 0 mm 7 mps 731 mmHg 66%
    11:00 +29°C° 0 mm 7 mps 731 mmHg 62%
    12:00 +30°C° 0 mm 7 mps 731 mmHg 57%
    13:00 +32°C° 0 mm 6 mps 731 mmHg 53%
    14:00 +32°C° 0 mm 5 mps 730 mmHg 48%
    15:00 +33°C° 0 mm 4 mps 729 mmHg 44%
    16:00 +33°C° 0 mm 4 mps 729 mmHg 45%
    17:00 +33°C° 0 mm 3 mps 729 mmHg 46%
    18:00 +33°C° 0 mm 3 mps 728 mmHg 47%
    19:00 +31°C° 0 mm 3 mps 729 mmHg 51%
    20:00 +30°C° 0 mm 3 mps 729 mmHg 56%
    21:00 +29°C° 0 mm 4 mps 729 mmHg 60%
    22:00 +29°C° 0 mm 3 mps 729 mmHg 62%
    23:00 +29°C° 0 mm 3 mps 729 mmHg 64%

    21 July, Sunday

    Time Temperature Precipitation Wind Pressure Humidity
    00:00 +29°C° 0 mm 2 mps 729 mmHg 65%
    01:00 +28°C° 0 mm 2 mps 729 mmHg 67%
    02:00 +28°C° 0 mm 2 mps 729 mmHg 68%
    03:00 +28°C° 0 mm 3 mps 728 mmHg 70%
    04:00 +28°C° 0 mm 3 mps 729 mmHg 70%
    05:00 +28°C° 0 mm 3 mps 729 mmHg 70%
    06:00 +27°C° 0 mm 4 mps 729 mmHg 70%
    07:00 +29°C° 0 mm 4 mps 729 mmHg 65%
    08:00 +30°C° 0 mm 4 mps 729 mmHg 60%
    09:00 +32°C° 0 mm 4 mps 730 mmHg 54%
    10:00 +34°C° 0 mm 4 mps 730 mmHg 49%
    11:00 +35°C° 0 mm 5 mps 729 mmHg 43%
    12:00 +37°C° 0 mm 5 mps 729 mmHg 38%
    13:00 +37°C° 0 mm 4 mps 729 mmHg 36%
    14:00 +38°C° 0 mm 4 mps 728 mmHg 35%
    15:00 +38°C° 0 mm 3 mps 727 mmHg 33%
    16:00 +38°C° 0 mm 3 mps 727 mmHg 34%
    17:00 +38°C° 0 mm 3 mps 727 mmHg 34%
    18:00 +38°C° 0 mm 3 mps 727 mmHg 35%
    19:00 +34°C° 1.7 mm 5 mps 727 mmHg 48%
    20:00 +31°C° 1.7 mm 8 mps 728 mmHg 62%
    21:00 +26°C° 1.7 mm 10 mps 728 mmHg 75%
    22:00 +26°C° 2 mm 8 mps 728 mmHg 75%
    23:00 +27°C° 2 mm 6 mps 729 mmHg 75%
    Show more